Time,TemperatureF,DewpointF,PressureIn,WindDirection,WindDirectionDegrees,WindSpeedMPH,WindSpeedGustMPH,Humidity,HourlyPrecipIn,Conditions,Clouds,dailyrainin,SoftwareType,DateUTC
2013-01-11 00:02:00,9.0,9.0,-100.00,ENE,57,8.0,9.0,98,-99.99,,,-99.99,,2013-01-11 07:02:00,
2013-01-11 00:12:00,9.0,8.0,-100.00,NE,50,4.0,9.0,97,-99.99,,,-99.99,,2013-01-11 07:12:00,
2013-01-11 00:22:00,9.0,8.0,-100.00,NE,50,4.0,9.0,97,-99.99,,,-99.99,,2013-01-11 07:22:00,
2013-01-11 00:32:00,9.0,8.0,-100.00,NE,50,4.0,9.0,97,-99.99,,,-99.99,,2013-01-11 07:32:00,
2013-01-11 00:42:00,9.0,9.0,-100.00,North,1,3.0,10.0,98,-99.99,,,-99.99,,2013-01-11 07:42:00,
2013-01-11 00:52:00,9.0,9.0,-100.00,North,1,3.0,10.0,98,-99.99,,,-99.99,,2013-01-11 07:52:00,
2013-01-11 01:02:00,9.0,9.0,-100.00,North,1,3.0,10.0,98,-99.99,,,-99.99,,2013-01-11 08:02:00,
2013-01-11 01:12:00,9.0,9.0,-100.00,North,1,3.0,10.0,98,-99.99,,,-99.99,,2013-01-11 08:12:00,
2013-01-11 01:22:00,9.0,9.0,-100.00,North,1,3.0,10.0,98,-99.99,,,-99.99,,2013-01-11 08:22:00,
2013-01-11 01:53:00,8.0,8.0,-100.00,NE,49,6.0,10.0,98,-99.99,,,-99.99,,2013-01-11 08:53:00,
2013-01-11 02:02:00,8.0,8.0,-100.00,NE,39,5.0,9.0,98,-99.99,,,-99.99,,2013-01-11 09:02:00,
2013-01-11 02:12:00,8.0,8.0,-100.00,NE,39,5.0,9.0,98,-99.99,,,-99.99,,2013-01-11 09:12:00,
2013-01-11 02:22:00,9.0,9.0,-100.00,North,9,4.0,12.0,98,-99.99,,,-99.99,,2013-01-11 09:22:00,
2013-01-11 02:32:00,9.0,8.0,-100.00,ENE,60,8.0,11.0,97,-99.99,,,-99.99,,2013-01-11 09:32:00,
2013-01-11 02:42:00,9.0,8.0,-100.00,ENE,60,8.0,11.0,97,-99.99,,,-99.99,,2013-01-11 09:42:00,
2013-01-11 02:52:00,9.0,8.0,-100.00,NNE,32,3.0,10.0,97,-99.99,,,-99.99,,2013-01-11 09:52:00,
2013-01-11 03:02:00,9.0,8.0,-100.00,ENE,59,4.0,9.0,97,-99.99,,,-99.99,,2013-01-11 10:02:00,
2013-01-11 03:12:00,9.0,8.0,-100.00,ENE,59,4.0,9.0,97,-99.99,,,-99.99,,2013-01-11 10:12:00,
2013-01-11 03:22:00,9.0,8.0,-100.00,NNE,19,6.0,9.0,97,-99.99,,,-99.99,,2013-01-11 10:22:00,
2013-01-11 03:32:00,9.0,8.0,-100.00,NE,35,5.0,13.0,97,-99.99,,,-99.99,,2013-01-11 10:32:00,
2013-01-11 03:42:00,9.0,8.0,-100.00,NE,35,5.0,13.0,97,-99.99,,,-99.99,,2013-01-11 10:42:00,
2013-01-11 03:52:00,9.0,8.0,-100.00,ENE,59,6.0,11.0,97,-99.99,,,-99.99,,2013-01-11 10:52:00,
2013-01-11 04:03:00,9.0,8.0,-100.00,NNE,18,4.0,9.0,97,-99.99,,,-99.99,,2013-01-11 11:03:00,
2013-01-11 04:12:00,9.0,8.0,-100.00,NNE,18,4.0,9.0,97,-99.99,,,-99.99,,2013-01-11 11:12:00,
2013-01-11 04:22:00,9.0,8.0,-100.00,NE,49,7.0,18.0,97,-99.99,,,-99.99,,2013-01-11 11:22:00,
2013-01-11 04:33:00,9.0,8.0,-100.00,ENE,61,9.0,17.0,97,-99.99,,,-99.99,,2013-01-11 11:33:00,
2013-01-11 04:42:00,9.0,8.0,-100.00,ENE,61,9.0,17.0,97,-99.99,,,-99.99,,2013-01-11 11:42:00,
2013-01-11 04:52:00,9.0,8.0,-100.00,ENE,61,9.0,17.0,97,-99.99,,,-99.99,,2013-01-11 11:52:00,
2013-01-11 05:03:00,8.0,7.0,-100.00,NNW,329,4.0,14.0,97,-99.99,,,-99.99,,2013-01-11 12:03:00,
2013-01-11 05:12:00,8.0,7.0,-100.00,NNW,329,4.0,14.0,97,-99.99,,,-99.99,,2013-01-11 12:12:00,
2013-01-11 05:22:00,8.0,7.0,-100.00,East,88,6.0,12.0,97,-99.99,,,-99.99,,2013-01-11 12:22:00,
2013-01-11 05:33:00,8.0,7.0,-100.00,East,88,5.0,12.0,97,-99.99,,,-99.99,,2013-01-11 12:33:00,
2013-01-11 05:42:00,8.0,7.0,-100.00,East,88,5.0,12.0,97,-99.99,,,-99.99,,2013-01-11 12:42:00,
2013-01-11 05:52:00,8.0,7.0,-100.00,NNE,23,7.0,10.0,97,-99.99,,,-99.99,,2013-01-11 12:52:00,
2013-01-11 06:02:00,8.0,7.0,-100.00,ENE,61,7.0,15.0,97,-99.99,,,-99.99,,2013-01-11 13:02:00,
2013-01-11 06:12:00,8.0,7.0,-100.00,ENE,61,7.0,15.0,97,-99.99,,,-99.99,,2013-01-11 13:12:00,
2013-01-11 06:22:00,8.0,7.0,-100.00,ENE,61,7.0,15.0,97,-99.99,,,-99.99,,2013-01-11 13:22:00,
2013-01-11 06:33:00,8.0,7.0,-100.00,NE,43,3.0,11.0,97,-99.99,,,-99.99,,2013-01-11 13:33:00,
2013-01-11 06:42:00,8.0,7.0,-100.00,NE,43,3.0,11.0,97,-99.99,,,-99.99,,2013-01-11 13:42:00,
2013-01-11 06:53:00,8.0,7.0,-100.00,NE,43,3.0,11.0,97,-99.99,,,-99.99,,2013-01-11 13:53:00,
2013-01-11 07:03:00,8.0,7.0,-100.00,NE,47,4.0,7.0,97,-99.99,,,-99.99,,2013-01-11 14:03:00,
2013-01-11 07:12:00,8.0,7.0,-100.00,WSW,253,5.0,11.0,97,-99.99,,,-99.99,,2013-01-11 14:12:00,
2013-01-11 07:23:00,8.0,7.0,-100.00,WSW,253,5.0,11.0,97,-99.99,,,-99.99,,2013-01-11 14:23:00,
2013-01-11 07:33:00,7.0,6.0,-100.00,NE,40,7.0,15.0,97,-99.99,,,-99.99,,2013-01-11 14:33:00,
2013-01-11 07:42:00,7.0,6.0,-100.00,NE,43,4.0,13.0,97,-99.99,,,-99.99,,2013-01-11 14:42:00,
2013-01-11 07:53:00,7.0,6.0,-100.00,NE,43,4.0,13.0,97,-99.99,,,-99.99,,2013-01-11 14:53:00,
2013-01-11 08:03:00,7.0,6.0,-100.00,ENE,77,10.0,12.0,97,-99.99,,,-99.99,,2013-01-11 15:03:00,
2013-01-11 08:12:00,6.0,5.0,-100.00,NE,49,4.0,13.0,97,-99.99,,,-99.99,,2013-01-11 15:12:00,
2013-01-11 08:23:00,6.0,5.0,-100.00,NE,49,4.0,13.0,97,-99.99,,,-99.99,,2013-01-11 15:23:00,
2013-01-11 08:33:00,6.0,5.0,-100.00,NE,52,9.0,12.0,96,-99.99,,,-99.99,,2013-01-11 15:33:00,
2013-01-11 08:42:00,6.0,5.0,-100.00,NE,52,9.0,12.0,96,-99.99,,,-99.99,,2013-01-11 15:42:00,
2013-01-11 08:52:00,6.0,5.0,-100.00,NE,43,7.0,10.0,96,-99.99,,,-99.99,,2013-01-11 15:52:00,
2013-01-11 09:03:00,6.0,5.0,-100.00,NE,40,8.0,13.0,96,-99.99,,,-99.99,,2013-01-11 16:03:00,
2013-01-11 09:12:00,6.0,5.0,-100.00,NE,40,8.0,13.0,96,-99.99,,,-99.99,,2013-01-11 16:12:00,
2013-01-11 09:22:00,6.0,5.0,-100.00,NE,40,8.0,13.0,96,-99.99,,,-99.99,,2013-01-11 16:22:00,
2013-01-11 09:33:00,6.0,5.0,-100.00,NE,43,4.0,12.0,96,-99.99,,,-99.99,,2013-01-11 16:33:00,
2013-01-11 09:42:00,6.0,5.0,-100.00,ENE,63,4.0,15.0,96,-99.99,,,-99.99,,2013-01-11 16:42:00,
2013-01-11 09:53:00,6.0,5.0,-100.00,ENE,63,4.0,15.0,96,-99.99,,,-99.99,,2013-01-11 16:53:00,
2013-01-11 10:03:00,6.0,5.0,-100.00,NE,35,7.0,11.0,96,-99.99,,,-99.99,,2013-01-11 17:03:00,
2013-01-11 10:12:00,6.0,5.0,-100.00,NE,52,7.0,18.0,96,-99.99,,,-99.99,,2013-01-11 17:12:00,
2013-01-11 10:22:00,6.0,5.0,-100.00,NE,52,7.0,18.0,96,-99.99,,,-99.99,,2013-01-11 17:22:00,
2013-01-11 10:33:00,5.0,4.0,-100.00,ENE,66,6.0,13.0,96,-99.99,,,-99.99,,2013-01-11 17:33:00,
2013-01-11 10:43:00,5.0,4.0,-100.00,ENE,66,6.0,13.0,96,-99.99,,,-99.99,,2013-01-11 17:43:00,
2013-01-11 10:53:00,5.0,4.0,-100.00,ENE,59,5.0,14.0,96,-99.99,,,-99.99,,2013-01-11 17:53:00,
2013-01-11 11:03:00,5.0,4.0,-100.00,ENE,63,13.0,18.0,96,-99.99,,,-99.99,,2013-01-11 18:03:00,
2013-01-11 11:12:00,5.0,4.0,-100.00,ENE,63,13.0,18.0,96,-99.99,,,-99.99,,2013-01-11 18:12:00,
2013-01-11 11:23:00,5.0,4.0,-100.00,ENE,63,13.0,18.0,96,-99.99,,,-99.99,,2013-01-11 18:23:00,
2013-01-11 11:33:00,5.0,4.0,-100.00,ENE,64,7.0,14.0,96,-99.99,,,-99.99,,2013-01-11 18:33:00,
2013-01-11 11:43:00,5.0,4.0,-100.00,ENE,64,7.0,14.0,96,-99.99,,,-99.99,,2013-01-11 18:43:00,
2013-01-11 11:53:00,5.0,4.0,-100.00,ENE,64,7.0,14.0,96,-99.99,,,-99.99,,2013-01-11 18:53:00,
2013-01-11 12:02:00,5.0,4.0,-100.00,ENE,67,7.0,15.0,96,-99.99,,,-99.99,,2013-01-11 19:02:00,
2013-01-11 12:12:00,5.0,4.0,-100.00,ENE,67,7.0,15.0,96,-99.99,,,-99.99,,2013-01-11 19:12:00,
2013-01-11 12:22:00,5.0,4.0,-100.00,ENE,67,7.0,15.0,96,-99.99,,,-99.99,,2013-01-11 19:22:00,
2013-01-11 12:32:00,5.0,4.0,-100.00,ENE,67,9.0,9.0,97,-99.99,,,-99.99,,2013-01-11 19:32:00,
2013-01-11 12:43:00,5.0,4.0,-100.00,ENE,67,9.0,9.0,97,-99.99,,,-99.99,,2013-01-11 19:43:00,
2013-01-11 12:53:00,5.0,4.0,-100.00,East,85,7.0,13.0,97,-99.99,,,-99.99,,2013-01-11 19:53:00,
2013-01-11 13:03:00,5.0,4.0,-100.00,NNE,23,6.0,12.0,97,-99.99,,,-99.99,,2013-01-11 20:03:00,
2013-01-11 13:12:00,5.0,4.0,-100.00,NNE,23,6.0,12.0,97,-99.99,,,-99.99,,2013-01-11 20:12:00,
2013-01-11 13:22:00,4.0,3.0,-100.00,NNE,16,6.0,13.0,96,-99.99,,,-99.99,,2013-01-11 20:22:00,
2013-01-11 13:33:00,4.0,3.0,-100.00,NE,54,4.0,10.0,96,-99.99,,,-99.99,,2013-01-11 20:33:00,
2013-01-11 13:43:00,4.0,3.0,-100.00,NE,54,4.0,10.0,96,-99.99,,,-99.99,,2013-01-11 20:43:00,
2013-01-11 13:52:00,4.0,3.0,-100.00,WSW,244,3.0,12.0,96,-99.99,,,-99.99,,2013-01-11 20:52:00,
2013-01-11 14:03:00,4.0,3.0,-100.00,NE,45,6.0,19.0,96,-99.99,,,-99.99,,2013-01-11 21:03:00,
2013-01-11 14:12:00,4.0,3.0,-100.00,NE,45,6.0,19.0,96,-99.99,,,-99.99,,2013-01-11 21:12:00,
2013-01-11 14:23:00,4.0,3.0,-100.00,NE,45,6.0,19.0,96,-99.99,,,-99.99,,2013-01-11 21:23:00,
2013-01-11 14:33:00,3.0,2.0,-100.00,ESE,108,5.0,18.0,96,-99.99,,,-99.99,,2013-01-11 21:33:00,
2013-01-11 14:42:00,3.0,2.0,-100.00,ESE,108,5.0,18.0,96,-99.99,,,-99.99,,2013-01-11 21:42:00,
2013-01-11 14:53:00,3.0,2.0,-100.00,SSE,150,8.0,17.0,96,-99.99,,,-99.99,,2013-01-11 21:53:00,
2013-01-11 15:02:00,3.0,2.0,-100.00,NE,40,5.0,15.0,96,-99.99,,,-99.99,,2013-01-11 22:02:00,
2013-01-11 15:12:00,3.0,2.0,-100.00,NE,50,10.0,18.0,96,-99.99,,,-99.99,,2013-01-11 22:12:00,
2013-01-11 15:22:00,3.0,2.0,-100.00,NE,50,10.0,18.0,96,-99.99,,,-99.99,,2013-01-11 22:22:00,
2013-01-11 15:33:00,3.0,2.0,-100.00,NNE,25,6.0,17.0,96,-99.99,,,-99.99,,2013-01-11 22:33:00,
2013-01-11 15:42:00,3.0,2.0,-100.00,NNE,25,6.0,17.0,96,-99.99,,,-99.99,,2013-01-11 22:42:00,
2013-01-11 15:52:00,3.0,2.0,-100.00,NW,324,4.0,18.0,96,-99.99,,,-99.99,,2013-01-11 22:52:00,
2013-01-11 16:02:00,3.0,2.0,-100.00,NE,49,8.0,16.0,96,-99.99,,,-99.99,,2013-01-11 23:02:00,
2013-01-11 16:13:00,3.0,2.0,-100.00,NE,49,8.0,16.0,96,-99.99,,,-99.99,,2013-01-11 23:13:00,
2013-01-11 16:22:00,3.0,2.0,-100.00,NE,40,9.0,15.0,96,-99.99,,,-99.99,,2013-01-11 23:22:00,
2013-01-11 16:32:00,2.0,1.0,-100.00,NNE,18,9.0,19.0,96,-99.99,,,-99.99,,2013-01-11 23:32:00,
2013-01-11 16:42:00,2.0,1.0,-100.00,NNE,18,9.0,19.0,96,-99.99,,,-99.99,,2013-01-11 23:42:00,
2013-01-11 16:53:00,2.0,1.0,-100.00,NNE,18,9.0,19.0,96,-99.99,,,-99.99,,2013-01-11 23:53:00,
2013-01-11 17:02:00,2.0,1.0,-100.00,NNE,28,5.0,15.0,95,-99.99,,,-99.99,,2013-01-12 00:02:00,
2013-01-11 17:12:00,2.0,1.0,-100.00,NE,54,8.0,14.0,95,-99.99,,,-99.99,,2013-01-12 00:12:00,
2013-01-11 17:23:00,2.0,1.0,-100.00,NE,54,8.0,14.0,95,-99.99,,,-99.99,,2013-01-12 00:23:00,
2013-01-11 17:32:00,2.0,1.0,-100.00,North,1,7.0,17.0,95,-99.99,,,-99.99,,2013-01-12 00:32:00,
2013-01-11 17:42:00,2.0,1.0,-100.00,North,1,7.0,17.0,95,-99.99,,,-99.99,,2013-01-12 00:42:00,
2013-01-11 17:52:00,2.0,1.0,-100.00,NE,45,9.0,15.0,95,-99.99,,,-99.99,,2013-01-12 00:52:00,
2013-01-11 18:02:00,2.0,1.0,-100.00,NE,45,9.0,15.0,95,-99.99,,,-99.99,,2013-01-12 01:02:00,
2013-01-11 18:12:00,2.0,1.0,-100.00,NE,45,9.0,15.0,95,-99.99,,,-99.99,,2013-01-12 01:12:00,
2013-01-11 18:22:00,2.0,1.0,-100.00,ENE,71,9.0,19.0,95,-99.99,,,-99.99,,2013-01-12 01:22:00,
2013-01-11 18:33:00,3.0,2.0,-100.00,NNW,347,7.0,24.0,94,-99.99,,,-99.99,,2013-01-12 01:33:00,
2013-01-11 18:43:00,3.0,2.0,-100.00,NNW,347,7.0,24.0,94,-99.99,,,-99.99,,2013-01-12 01:43:00,
2013-01-11 18:52:00,2.0,1.0,-100.00,NE,45,8.0,16.0,94,-99.99,,,-99.99,,2013-01-12 01:52:00,
2013-01-11 19:02:00,2.0,1.0,-100.00,NE,49,8.0,18.0,95,-99.99,,,-99.99,,2013-01-12 02:02:00,
2013-01-11 19:12:00,2.0,1.0,-100.00,NE,49,8.0,18.0,95,-99.99,,,-99.99,,2013-01-12 02:12:00,
2013-01-11 19:22:00,1.0,0.0,-100.00,WNW,284,3.0,13.0,95,-99.99,,,-99.99,,2013-01-12 02:22:00,
2013-01-11 19:33:00,1.0,0.0,-100.00,WNW,284,3.0,13.0,95,-99.99,,,-99.99,,2013-01-12 02:33:00,
2013-01-11 19:43:00,1.0,0.0,-100.00,WNW,284,3.0,13.0,95,-99.99,,,-99.99,,2013-01-12 02:43:00,
2013-01-11 19:53:00,1.0,0.0,-100.00,NE,42,8.0,13.0,96,-99.99,,,-99.99,,2013-01-12 02:53:00,
2013-01-11 20:03:00,1.0,0.0,-100.00,North,358,7.0,16.0,96,-99.99,,,-99.99,,2013-01-12 03:03:00,
2013-01-11 20:12:00,1.0,0.0,-100.00,North,358,7.0,16.0,96,-99.99,,,-99.99,,2013-01-12 03:12:00,
2013-01-11 20:22:00,1.0,0.0,-100.00,ENE,75,8.0,17.0,96,-99.99,,,-99.99,,2013-01-12 03:22:00,
2013-01-11 20:33:00,1.0,0.0,-100.00,NNE,33,7.0,10.0,96,-99.99,,,-99.99,,2013-01-12 03:33:00,
2013-01-11 20:42:00,1.0,0.0,-100.00,NNE,33,7.0,10.0,96,-99.99,,,-99.99,,2013-01-12 03:42:00,
2013-01-11 20:52:00,1.0,0.0,-100.00,NNE,23,0.0,11.0,96,-99.99,,,-99.99,,2013-01-12 03:52:00,
2013-01-11 21:02:00,1.0,0.0,-100.00,North,11,5.0,10.0,96,-99.99,,,-99.99,,2013-01-12 04:02:00,
2013-01-11 21:12:00,1.0,0.0,-100.00,North,11,5.0,10.0,96,-99.99,,,-99.99,,2013-01-12 04:12:00,
2013-01-11 21:22:00,1.0,0.0,-100.00,NE,37,0.0,12.0,96,-99.99,,,-99.99,,2013-01-12 04:22:00,
2013-01-11 21:32:00,1.0,0.0,-100.00,NNW,343,6.0,10.0,95,-99.99,,,-99.99,,2013-01-12 04:32:00,
2013-01-11 21:42:00,1.0,0.0,-100.00,NNW,343,6.0,10.0,95,-99.99,,,-99.99,,2013-01-12 04:42:00,
2013-01-11 21:52:00,1.0,0.0,-100.00,NNW,341,7.0,14.0,95,-99.99,,,-99.99,,2013-01-12 04:52:00,
2013-01-11 22:03:00,1.0,0.0,-100.00,NNE,28,0.0,7.0,95,-99.99,,,-99.99,,2013-01-12 05:03:00,
2013-01-11 22:12:00,1.0,0.0,-100.00,NNE,28,0.0,7.0,95,-99.99,,,-99.99,,2013-01-12 05:12:00,
2013-01-11 22:22:00,1.0,0.0,-100.00,NE,46,6.0,14.0,96,-99.99,,,-99.99,,2013-01-12 05:22:00,
2013-01-11 22:32:00,1.0,0.0,-100.00,ENE,73,3.0,10.0,95,-99.99,,,-99.99,,2013-01-12 05:32:00,
2013-01-11 22:42:00,1.0,0.0,-100.00,ENE,73,3.0,10.0,95,-99.99,,,-99.99,,2013-01-12 05:42:00,
2013-01-11 22:52:00,1.0,0.0,-100.00,NE,35,3.0,10.0,96,-99.99,,,-99.99,,2013-01-12 05:52:00,
2013-01-11 23:02:00,1.0,0.0,-100.00,East,82,4.0,10.0,95,-99.99,,,-99.99,,2013-01-12 06:02:00,
2013-01-11 23:12:00,1.0,0.0,-100.00,East,82,4.0,10.0,95,-99.99,,,-99.99,,2013-01-12 06:12:00,
2013-01-11 23:22:00,0.0,-1.0,-100.00,NNE,33,7.0,12.0,95,-99.99,,,-99.99,,2013-01-12 06:22:00,
2013-01-11 23:32:00,0.0,-1.0,-100.00,NNE,28,5.0,12.0,95,-99.99,,,-99.99,,2013-01-12 06:32:00,
2013-01-11 23:42:00,0.0,-1.0,-100.00,NNE,28,5.0,12.0,95,-99.99,,,-99.99,,2013-01-12 06:42:00,
2013-01-11 23:52:00,0.0,-1.0,-100.00,NW,307,6.0,14.0,95,-99.99,,,-99.99,,2013-01-12 06:52:00,